Location: Laspileau
(48.2744°N, 4.5122°W)
Time: 17:56:02
(UTC+00:00)

Daily predictions for brighter satellites

Satellite Brightness Start Highest point End
(mag) Time Altitude Azimuth Time Altitude Azimuth Time Altitude Azimuth
Cosmos 1503 Rocket 4.5 18:30:21 10° N 18:35:15 39° ENE 18:40:05 10° SE
HJ-1C 4.2 18:34:00 10° SE 18:36:55 29° ENE 18:39:51 10° N
H-2A R/B 3.0 18:33:05 10° N 18:37:05 51° WNW 18:41:03 10° SW
SKYMED 2 3.6 18:33:50 10° NNE 18:38:12 88° E 18:42:34 10° SSW
PSLV R/B 4.4 18:35:24 10° NNE 18:39:14 37° E 18:43:01 10° SSE
MOS 1 Rocket 3.7 18:34:13 10° N 18:39:15 81° WNW 18:44:33 10° SSW
Cosmos 1844 4.4 18:34:55 10° NNW 18:40:12 35° NE 18:45:25 10° ESE
Cosmos 1805 Rocket 4.4 18:36:58 10° SSW 18:41:17 57° WNW 18:45:40 10° N
Cosmos 1470 Rocket 4.2 18:37:54 10° SSE 18:41:56 35° E 18:45:59 10° NNE
CZ-4B R/B 1.2 18:40:14 10° NNE 18:43:17 86° WNW 18:46:21 10° SSW
Cosmos 2360 Rocket 3.0 18:39:15 10° SSE 18:44:03 29° ESE 18:48:52 10° NE
Cosmos 2278 Rocket 4.1 18:41:57 10° N 18:44:54 14° NNE 18:47:49 10° ENE
Cosmos 1602 3.9 18:41:43 10° S 18:45:30 53° E 18:49:21 10° NNE
Ariane Rocket 4.5 18:42:57 10° E 18:46:18 18° ENE 18:49:39 10° NNE
Meteor 1-19 Rocket 4.3 18:42:33 10° N 18:48:30 64° ENE 18:54:14 10° SSE
Okean O Rocket 4.1 18:47:34 10° SSW 18:51:16 27° W 18:55:00 10° NW
Cosmos 1500 3.9 18:49:23 10° SSE 18:52:38 29° E 18:55:55 10° NNE
Meteor 2-4 Rocket 4.2 18:47:25 10° N 18:52:58 43° ENE 18:58:34 10° SE
Cosmos 1703 Rocket 4.5 18:49:26 10° NNE 18:53:15 27° ENE 18:57:00 10° SE
Cosmos 2333 Rocket 3.6 18:51:12 10° SE 18:54:31 16° E 18:57:51 10° ENE
Cosmos 1689 Rocket 2.4 18:53:54 10° NNE 18:56:40 41° E 18:59:24 10° S
SL-08 RB Rocket 4.0 18:53:19 10° SE 18:57:37 45° ENE 19:01:59 10° N
ERBS 3.0 18:55:32 10° WSW 18:58:47 51° NNW 19:02:02 10° NE
Cosmos 1980 Rocket 3.7 18:54:46 10° WSW 19:00:01 37° NW 19:05:18 10° NNE
SJ-11-01 4.3 18:58:08 10° SSE 19:02:49 89° ENE 19:07:34 10° NNW
Cosmos 1933 Rocket 4.0 18:58:49 10° SSE 19:02:50 37° E 19:06:53 10° NNE
Aureole 2 Rocket 1.5 19:01:25 10° NNW 19:03:58 65° ENE 19:06:26 10° SSE
Cosmos 1666 Rocket 3.9 19:00:01 10° SSW 19:04:19 69° W 19:08:38 10° N
Cosmos 1862 Rocket 3.6 19:00:59 10° N 19:05:31 87° W 19:10:00 10° S
Cosmos 2327 Rocket 4.5 19:04:25 10° S 19:10:44 77° E 19:17:00 10° NNE
Cosmos 2242 Rocket 3.9 19:07:04 10° N 19:11:26 46° ENE 19:15:44 10° SSE
Resurs 01 Rocket 3.5 19:12:40 12° ENE 19:12:56 12° ENE 19:14:43 10° NNE
Cosmos 2322 Rocket 2.1 19:08:09 10° SSW 19:13:45 82° ESE 19:19:24 10° NNE
Cosmos 1461 4.1 19:09:12 10° WSW 19:13:50 51° NW 19:18:27 10° NNE
Abrixas rocket 1.3 19:12:34 10° W 19:15:04 89° NNE 19:16:07 30° E
Lacrosse 4 Rocket 3.4 19:13:36 10° SE 19:14:29 13° SE 19:14:29 13° SE
FALCON 9 DEB 4.1 19:16:08 10° WNW 19:19:04 33° N 19:20:47 19° NE
Helios 1A Rocket 2.8 19:15:54 10° SSE 19:19:58 89° ENE 19:24:02 10° NNW
Nadezhda 3 Rocket 4.1 19:13:59 10° N 19:20:22 84° W 19:26:45 10° S
YAOGAN 1 3.3 19:16:31 10° S 19:20:45 56° W 19:25:03 10° NNW
COSMOS 2428 3.8 19:20:22 10° SE 19:24:24 20° E 19:24:51 20° E
SJ-6B 3.5 19:22:30 19° ESE 19:24:52 34° ENE 19:28:34 10° N
ASTEX 1 4.2 19:22:56 10° NNE 19:27:09 28° E 19:30:11 16° SE
Cosmos 2154 Rocket 4.1 19:21:34 10° S 19:27:47 82° W 19:34:02 10° N
Cosmos 1295 Rocket 4.5 19:22:20 10° S 19:28:36 87° E 19:34:50 10° N
GP-B 3.0 19:24:17 10° SSE 19:28:40 66° E 19:33:06 10° N
Meteor 1-14 Rocket 4.1 19:23:27 10° S 19:29:00 79° E 19:34:34 10° NNE
Cosmos 2219 Rocket 3.0 19:26:39 10° SSE 19:31:14 27° ESE 19:35:51 10° NE
FALCON 9 DEB 4.1 19:28:37 10° WNW 19:31:34 34° N 19:32:42 25° NE
Meteor 1-11 Rocket 4.3 19:26:53 10° SSE 19:31:56 33° E 19:36:54 10° NNE
MetOp-A 4.2 19:28:38 10° SSE 19:33:53 60° ENE 19:39:10 10° N
Cosmos 1992 Rocket 4.1 19:30:37 10° SSW 19:35:51 79° WNW 19:41:08 10° NNE
OBJECT-B 1.6 19:36:24 31° ENE 19:36:24 31° ENE 19:39:01 10° N
ARGOS 3.7 19:32:47 10° S 19:38:08 60° WSW 19:43:33 10° NNW
SL-16 R/B 2.9 19:32:54 10° SW 19:38:29 56° WNW 19:44:05 10° NNE
Resurs 1-3 4.4 19:38:48 29° E 19:39:27 30° ENE 19:43:17 10° N
SJ 16-02 2.7 19:36:05 10° N 19:39:31 22° NE 19:39:34 22° ENE
Okean 1-7 2.9 19:36:16 10° N 19:40:40 74° E 19:44:59 10° SSE
SeaSat 1 2.3 19:36:21 10° NNE 19:41:19 81° ESE 19:46:16 10° SSW
Meteor 1-13 Rocket 4.4 19:37:18 10° N 19:43:12 58° ENE 19:48:31 12° SSE
SAR-Lupe-4 4.4 19:40:42 10° N 19:44:11 52° WNW 19:47:40 10° SSW
CZ-4 R/B 3.7 19:41:04 10° SSW 19:44:17 25° W 19:47:33 10° NW
USA 234 3.4 19:39:54 17° ENE 19:44:49 51° SE 19:51:09 10° SSW
CZ-2C R/B 2.7 19:43:14 10° NNE 19:48:46 83° WNW 19:54:08 10° SSW
H-2A R/B 3.8 19:43:51 10° SSW 19:48:50 36° W 19:53:49 10° NNW
USA 305 3.9 19:45:14 10° WNW 19:49:15 37° N 19:50:56 26° NE
BREEZE-M DEB (TANK) 2.2 19:47:15 10° W 19:49:42 72° N 19:51:10 37° E
IRS-1A Rocket 4.3 19:46:43 18° SE 19:50:47 58° ENE 19:56:15 10° N
Cosmos 2322 3.9 19:45:34 10° S 19:51:02 48° ESE 19:56:30 10° NE
SL-4 R/B 1.5 19:50:19 10° WNW 19:53:49 71° NNE 19:54:12 63° ENE
DMSP B5D2-2 3.9 19:49:19 10° NNE 19:54:34 76° ESE 19:59:47 10° S
USA 186 2.7 19:56:42 29° NNW 19:56:42 29° NNW 19:58:07 10° NNW
Cosmos 1869 Rocket 3.5 19:52:48 10° S 19:57:03 58° E 20:01:24 10° NNE
Cosmos 2237 4.5 19:52:08 10° SW 19:57:51 72° WNW 20:03:36 10° NNE
Gbstr 26 Del rocket 3.7 19:54:09 10° WNW 19:58:43 58° N 20:00:59 33° ENE
FALCON 9 DEB 3.7 19:55:36 10° WNW 19:58:56 48° SW 19:59:26 44° S
SL-8 Rocket 3.9 19:53:19 10° S 19:59:32 75° E 20:05:44 10° NNE
USA 307 3.9 19:56:36 10° WNW 20:00:37 38° N 20:01:49 31° NE
ERS-2 4.0 19:58:20 10° N 20:01:37 32° WNW 20:04:53 10° SW
ATLAS CENTAUR R/B 1.2 19:58:07 10° SW 20:01:44 69° NW 20:03:11 34° NNE
FALCON 9 DEB 3.9 19:59:08 10° WNW 20:01:56 38° N 20:01:56 38° N
USA 306 3.8 20:00:00 10° WNW 20:04:01 38° N 20:05:03 33° NE
FALCON 9 DEB 4.0 20:01:09 10° WNW 20:03:59 37° N 20:03:59 37° N
Cosmos 1378 3.9 20:01:14 10° N 20:03:53 38° NNE 20:03:53 38° NNE
Cosmos 1666 2.8 20:05:31 10° SSW 20:09:12 71° W 20:12:57 10° N
USA 308 3.8 20:07:14 10° WNW 20:11:15 38° N 20:12:00 35° NNE
Cosmos 1844 Rocket 3.5 20:07:08 10° NW 20:12:29 48° WSW 20:17:47 10° S
Cosmos 2366 rocket 3.9 20:08:16 10° S 20:14:34 79° E 20:20:57 10° NNE
Cosmos 1777 Rocket 4.0 20:10:41 10° NNW 20:15:57 81° WSW 20:18:16 34° SSE
SPOT 3 Rocket 3.7 20:18:38 50° ENE 20:18:45 50° ENE 20:23:48 10° N
Okean 3 3.4 20:14:36 10° N 20:18:53 87° WSW 20:19:30 64° S
Cosmos 2333 4.1 20:15:57 10° SSW 20:21:36 87° ESE 20:27:22 10° NNE
Cosmos 2341 Rocket 4.5 20:17:08 10° SSW 20:23:22 61° WNW 20:29:36 10° N
Cosmos 2221 Rocket 4.1 20:19:47 10° N 20:23:10 46° NNE 20:23:10 46° NNE
Ariane Rocket 3.0 20:22:15 32° S 20:24:39 80° WSW 20:29:47 10° NNW
Cosmos 2360 Rocket 3.0 20:22:17 10° SW 20:27:47 51° NW 20:33:20 10° NNE
Cosmos 2278 Rocket 2.4 20:24:50 10° NNW 20:30:24 52° NE 20:30:28 52° ENE
Cosmos 1727 Rocket 3.9 20:29:09 10° N 20:35:23 88° E 20:37:44 41° S
Meteor 2-20 4.3 20:30:33 10° N 20:36:41 81° E 20:38:13 53° SSE
Cosmos 2333 Rocket 2.1 20:32:16 10° SSW 20:37:58 88° WNW 20:43:44 10° NNE
Cosmos 1821 Rocket 4.3 20:41:55 48° NE 20:41:55 48° NE 20:46:42 10° NNE
Cosmos 2218 Rocket 4.3 20:35:26 10° SSW 20:41:48 67° WNW 20:48:12 10° N
Cosmos 1000 Rocket 4.4 20:42:19 10° N 20:48:32 68° ENE 20:48:32 68° ENE
Resurs 01 Rocket 2.6 20:50:14 41° N 20:50:14 41° N 20:53:10 10° NNW
MetOp-B 4.5 20:50:11 53° NNE 20:50:11 53° NNE 20:54:29 10° N
Cosmos 1943 Rocket 4.0 20:45:10 10° N 20:48:24 19° NNE 20:48:24 19° NNE
Lacrosse 4 Rocket 3.6 20:49:45 10° SW 20:50:57 18° SW 20:50:57 18° SW
Cosmos 2322 Rocket 4.4 20:54:08 10° W 20:58:30 23° NW 21:02:54 10° N
COSMOS 2428 3.0 21:02:25 10° SW 21:14:00 - NNE 21:07:13 61° WSW
OBJECT-B 4.0 21:09:28 14° WNW 21:09:28 14° WNW 21:10:32 10° NW
Cosmos 2219 Rocket 2.7 21:09:21 10° SW 21:14:50 55° WNW 21:20:23 10° NNE
Terra 4.3 21:21:50 14° N 21:21:50 14° N 21:22:33 10° N
SJ 16-02 3.1 21:14:06 10° NNW 21:16:35 30° NW 21:16:35 30° NW
USA 234 3.4 21:27:15 62° N 21:27:59 66° NNW 21:34:28 10° WSW
USA 281 4.3 21:34:30 33° NNE 21:34:30 33° NNE 21:38:50 10° NNW
Cosmos 2369 Rocket 4.2 21:30:16 10° N 21:32:29 18° NNE 21:32:29 18° NNE
Cosmos 2278 Rocket 4.1 22:09:23 10° NW 22:12:20 24° WNW 22:12:20 24° WNW
Cosmos 2333 Rocket 4.4 22:18:49 10° W 22:23:05 21° NW 22:27:23 10° N
Cosmos 1943 Rocket 4.4 22:28:11 10° NNW 22:29:55 21° NNW 22:29:55 21° NNW
